Temp
-13 -12 -13 -13 -12 -12 -12 -12 -12 -12 -12 -12 -12 -12 -12 -12 -12 -12 -12 -12 -12 -12 -12 -12 -12 -12 -12 -12 -12 -11 -11 -11 -11 -12 -12 -12 -12 -12 -11 -11 -11 -11 -11 -11 -11 -11 -11 -12 -12 -12 -12 -12 -12 -12 -12 -12 -12 -12 -12 -12 -12 -12 -12
-12 -12 -13 -12 -12 -12 -12 -12 -12 -12 -12 -12 -12 -12 -12 -12 -12 -12 -12 -12 -12 -12 -12 -12 -12 -12 -12 -12 -12 -12 -12 -12 -12 -12 -12 -12 -12 -12 -12 -12 -12 -11 -11 -11 -11 -11 -11 -11 -12 -12 -12 -12 -12 -12 -12 -12 -12 -12 -12 -12 -12 -12 -12
-13 -13 -13 -12 -12 -12 -12 -12 -12 -12 -12 -12 -12 -12 -12 -12 -12 -12 -12 -12 -12 -12 -12 -12 -12 -12 -12 -12 -12 -12 -12 -12 -12 -12 -12 -12 -12 -12 -12 -12 -12 -12 -12 -12 -12 -11 -11 -11 -11 -12 -12 -12 -12 -12 -12 -12 -12 -12 -12 -12 -12 -12 -12
-13 -13 -13 -12 -12 -12 -12 -12 -12 -12 -12 -12 -12 -12 -12 -12 -12 -12 -12 -12 -12 -12 -12 -12 -12 -12 -12 -12 -12 -12 -12 -12 -12 -12 -12 -12 -12 -12 -12 -12 -12 -12 -12 -12 -12 -12 -12 -12 -12 -12 -12 -12 -12 -12 -13 -13 -12 -12 -12 -12 -12 -13 -13
-13 -13 -13 -12 -12 -12 -12 -12 -12 -12 -12 -12 -12 -12 -12 -12 -12 -12 -12 -12 -12 -12 -12 -12 -12 -12 -12 -12 -12 -12 -12 -13 -13 -13 -13 -12 -12 -12 -12 -12 -12 -12 -12 -12 -12 -12 -12 -12 -12 -12 -12 -12 -12 -13 -13 -13 -13 -13 -13 -12 -12 -12 -13
-13 -13 -13 -13 -13 -12 -12 -12 -12 -12 -12 -12 -12 -12 -12 -12 -12 -13 -13 -13 -13 -13 -13 -13 -13 -13 -13 -13 -13 -13 -13 -13 -13 -13 -13 -13 -13 -13 -13 -13 -13 -13 -13 -12 -12 -12 -12 -12 -12 -12 -12 -12 -12 -12 -13 -13 -13 -13 -13 -13 -13 -13 -12
-13 -13 -13 -13 -13 -13 -12 -12 -12 -12 -12 -12 -12 -13 -13 -13 -13 -13 -13 -13 -13 -13 -13 -13 -13 -13 -13 -13 -13 -13 -13 -13 -13 -13 -13 -13 -13 -13 -13 -13 -13 -13 -13 -13 -13 -13 -13 -13 -12 -12 -12 -12 -12 -12 -13 -13 -13 -13 -13 -13 -13 -13 -13
-13 -13 -13 -13 -13 -13 -13 -13 -13 -13 -13 -13 -13 -13 -13 -13 -13 -13 -13 -13 -13 -13 -13 -13 -13 -13 -13 -13 -13 -13 -13 -13 -13 -13 -13 -13 -13 -13 -13 -13 -13 -13 -13 -13 -13 -13 -13 -13 -13 -12 -12 -12 -12 -12 -13 -13 -13 -13 -13 -13 -13 -13 -13
-13 -13 -13 -13 -13 -13 -13 -13 -13 -13 -13 -13 -13 -13 -13 -13 -13 -14 -14 -14 -14 -14 -14 -14 -14 -13 -13 -13 -13 -13 -13 -13 -13 -13 -13 -13 -13 -13 -13 -13 -13 -13 -13 -13 -13 -13 -13 -13 -13 -12 -12 -12 -12 -12 -12 -13 -13 -13 -13 -13 -13 -13 -13
-13 -13 -13 -13 -13 -13 -13 -13 -13 -13 -13 -13 -13 -13 -14 -14 -14 -14 -14 -14 -14 -14 -14 -14 -14 -14 -14 -14 -13 -13 -13 -13 -13 -13 -13 -13 -13 -13 -13 -13 -13 -13 -13 -13 -13 -13 -13 -13 -13 -13 -12 -12 -12 -12 -12 -12 -13 -14 -13 -13 -14 -14 -14
-13 -13 -13 -13 -13 -13 -13 -13 -13 -13 -13 -13 -14 -14 -14 -14 -14 -14 -14 -14 -14 -14 -14 -14 -14 -14 -14 -14 -14 -14 -14 -13 -13 -13 -13 -13 -13 -13 -13 -13 -13 -13 -13 -13 -13 -13 -13 -13 -13 -13 -13 -13 -12 -12 -12 -12 -13 -13 -13 -13 -14 -14 -14
-14 -14 -14 -14 -14 -14 -13 -13 -13 -13 -13 -14 -14 -14 -14 -14 -14 -14 -14 -14 -14 -14 -14 -14 -14 -14 -14 -14 -14 -14 -14 -14 -14 -14 -14 -14 -14 -13 -13 -13 -13 -13 -13 -13 -13 -13 -13 -13 -13 -13 -13 -13 -13 -13 -12 -12 -12 -13 -13 -13 -14 -14 -14
-14 -14 -14 -14 -14 -14 -14 -14 -13 -13 -14 -14 -14 -14 -14 -14 -14 -14 -14 -14 -14 -14 -14 -14 -14 -14 -14 -14 -14 -14 -14 -14 -14 -14 -14 -14 -14 -13 -13 -13 -13 -13 -13 -14 -13 -13 -13 -13 -13 -13 -13 -13 -13 -13 -13 -13 -12 -13 -13 -13 -13 -14 -14
-14 -14 -14 -14 -14 -14 -14 -14 -14 -14 -14 -14 -14 -14 -14 -14 -14 -14 -14 -14 -14 -14 -14 -14 -14 -14 -14 -14 -14 -14 -14 -14 -14 -14 -14 -14 -14 -14 -13 -13 -13 -14 -14 -14 -14 -14 -13 -13 -13 -14 -13 -14 -14 -13 -13 -13 -13 -13 -13 -14 -13 -13 -14
-14 -14 -14 -14 -14 -14 -14 -14 -14 -14 -14 -14 -14 -14 -14 -14 -14 -14 -14 -15 -15 -15 -14 -14 -14 -14 -14 -14 -14 -14 -14 -14 -14 -14 -14 -14 -14 -14 -14 -14 -14 -14 -14 -14 -14 -14 -14 -14 -14 -14 -14 -14 -14 -14 -14 -13 -13 -13 -13 -14 -14 -14 -14
-14 -14 -14 -14 -14 -14 -14 -14 -14 -14 -14 -14 -14 -14 -14 -14 -14 -14 -15 -15 -15 -15 -14 -14 -14 -14 -14 -14 -14 -14 -15 -15 -15 -14 -14 -14 -14 -14 -14 -14 -14 -14 -14 -14 -14 -14 -14 -14 -14 -14 -14 -14 -14 -14 -14 -14 -14 -13 -13 -14 -14 -14 -14
-14 -14 -14 -14 -14 -14 -14 -14 -14 -14 -14 -14 -14 -14 -14 -14 -14 -15 -15 -15 -15 -14 -14 -14 -14 -14 -15 -15 -15 -15 -15 -15 -15 -15 -15 -14 -14 -14 -14 -14 -14 -14 -14 -14 -14 -14 -14 -14 -14 -14 -14 -15 -15 -14 -14 -14 -14 -14 -14 -14 -14 -14 -14
-14 -14 -14 -14 -14 -14 -14 -14 -14 -14 -14 -14 -14 -14 -14 -14 -14 -14 -14 -14 -14 -14 -14 -14 -14 -15 -15 -15 -15 -15 -15 -15 -15 -15 -15 -14 -14 -14 -14 -14 -14 -14 -14 -14 -14 -15 -15 -15 -15 -15 -15 -15 -15 -15 -15 -15 -15 -14 -14 -14 -14 -14 -14
-14 -14 -14 -14 -14 -14 -14 -14 -14 -14 -14 -14 -14 -14 -14 -14 -14 -14 -14 -14 -14 -14 -14 -14 -15 -15 -15 -16 -16 -16 -15 -15 -15 -15 -15 -15 -15 -15 -15 -15 -15 -14 -14 -15 -15 -15 -15 -15 -15 -15 -15 -15 -15 -15 -15 -15 -15 -15 -15 -15 -15 -15 -15
-15 -15 -14 -14 -14 -14 -14 -14 -14 -14 -14 -14 -14 -14 -14 -14 -14 -14 -14 -14 -14 -14 -15 -15 -15 -16 -16 -16 -16 -16 -16 -15 -15 -15 -15 -15 -15 -15 -15 -15 -15 -15 -15 -15 -15 -15 -15 -15 -15 -15 -15 -15 -15 -15 -15 -15 -15 -15 -15 -15 -15 -15 -16
-14 -14 -14 -14 -14 -14 -14 -14 -14 -14 -14 -14 -14 -14 -14 -14 -14 -14 -14 -14 -14 -15 -15 -15 -16 -16 -16 -16 -16 -16 -16 -16 -16 -16 -15 -16 -16 -16 -15 -15 -15 -15 -15 -15 -15 -15 -15 -15 -15 -15 -15 -15 -15 -16 -16 -16 -16 -16 -16 -16 -16 -16 -16
-14 -14 -14 -14 -14 -14 -14 -14 -14 -14 -14 -14 -14 -14 -14 -14 -15 -15 -15 -15 -15 -15 -15 -16 -16 -16 -16 -16 -16 -16 -16 -16 -16 -16 -16 -16 -16 -16 -16 -16 -16 -16 -16 -16 -16 -16 -16 -16 -16 -16 -16 -16 -16 -16 -16 -17 -17 -17 -17 -17 -17 -17 -17
-14 -14 -14 -14 -14 -14 -14 -14 -14 -14 -14 -14 -14 -14 -14 -15 -15 -15 -15 -15 -15 -15 -16 -16 -16 -16 -16 -16 -16 -16 -16 -16 -16 -16 -16 -16 -16 -16 -16 -16 -16 -16 -16 -16 -17 -17 -17 -17 -17 -17 -17 -17 -17 -17 -17 -17 -17 -17 -17 -17 -17 -17 -17
-14 -14 -14 -14 -14 -14 -14 -14 -14 -14 -14 -14 -14 -15 -15 -15 -15 -15 -15 -15 -15 -16 -16 -16 -16 -16 -17 -17 -17 -17 -17 -17 -17 -17 -17 -17 -17 -17 -17 -17 -17 -17 -17 -17 -17 -18 -18 -18 -18 -18 -18 -18 -18 -18 -18 -18 -18 -18 -18 -17 -17 -17 -17
-14 -14 -14 -14 -14 -14 -14 -14 -14 -14 -14 -14 -14 -15 -15 -15 -15 -15 -15 -15 -16 -16 -16 -16 -17 -17 -17 -17 -17 -17 -17 -17 -17 -17 -17 -17 -17 -17 -17 -17 -17 -17 -18 -18 -18 -18 -18 -19 -19 -19 -19 -19 -19 -19 -19 -19 -18 -18 -18 -18 -18 -18 -18
-14 -14 -14 -14 -14 -14 -14 -14 -14 -14 -14 -14 -15 -15 -15 -15 -15 -15 -16 -16 -16 -16 -16 -17 -17 -17 -17 -17 -17 -17 -17 -17 -17 -17 -17 -17 -17 -17 -17 -18 -18 -18 -18 -18 -19 -19 -19 -19 -19 -19 -19 -19 -19 -19 -19 -19 -19 -19 -19 -19 -19 -19 -18
-14 -14 -14 -14 -14 -14 -14 -14 -14 -14 -14 -15 -15 -15 -15 -15 -16 -16 -16 -16 -16 -16 -17 -17 -17 -17 -17 -17 -17 -17 -17 -18 -18 -18 -18 -18 -18 -18 -18 -18 -18 -19 -19 -19 -19 -19 -19 -20 -20 -20 -20 -20 -20 -20 -20 -20 -20 -20 -19 -19 -19 -19 -19
-14 -14 -14 -14 -14 -14 -14 -14 -15 -15 -15 -15 -15 -15 -15 -16 -16 -16 -16 -16 -16 -17 -17 -17 -17 -17 -17 -17 -17 -18 -18 -18 -18 -18 -18 -18 -18 -18 -18 -19 -19 -19 -19 -20 -20 -20 -20 -20 -20 -20 -20 -20 -20 -20 -20 -20 -20 -20 -20 -19 -20 -20 -21
-14 -14 -15 -15 -14 -14 -14 -14 -15 -15 -15 -15 -15 -15 -15 -15 -16 -16 -16 -16 -17 -17 -17 -17 -17 -17 -17 -17 -18 -18 -18 -18 -18 -18 -18 -18 -18 -19 -19 -19 -19 -20 -20 -20 -20 -20 -20 -20 -20 -20 -20 -20 -20 -21 -21 -21 -21 -20 -20 -20 -21 -21 -21
-15 -15 -15 -15 -14 -14 -14 -14 -15 -15 -15 -15 -15 -15 -15 -16 -16 -16 -16 -17 -17 -17 -17 -17 -17 -17 -18 -18 -18 -18 -18 -18 -18 -18 -18 -19 -19 -19 -19 -20 -20 -20 -20 -20 -20 -20 -20 -20 -20 -21 -21 -21 -21 -21 -21 -21 -21 -21 -21 -21 -22 -22 -21
-15 -15 -15 -15 -14 -14 -15 -15 -15 -15 -15 -15 -15 -15 -15 -16 -16 -16 -17 -17 -17 -17 -17 -17 -17 -18 -18 -18 -18 -18 -18 -18 -18 -19 -19 -19 -19 -20 -20 -20 -20 -20 -20 -20 -20 -20 -20 -21 -21 -21 -21 -21 -21 -21 -21 -21 -21 -21 -21 -22 -22 -22 -21
-15 -15 -15 -15 -15 -15 -15 -15 -15 -15 -15 -15 -15 -16 -16 -16 -16 -17 -17 -17 -17 -17 -17 -18 -18 -18 -18 -18 -18 -18 -18 -19 -19 -19 -19 -19 -20 -20 -20 -20 -20 -20 -20 -21 -21 -21 -21 -21 -21 -21 -21 -21 -21 -21 -21 -21 -21 -21 -21 -22 -22 -21 -21
-15 -15 -15 -15 -15 -15 -15 -15 -15 -15 -16 -16 -16 -16 -16 -17 -17 -17 -17 -17 -17 -17 -18 -18 -18 -18 -18 -18 -18 -19 -19 -19 -19 -19 -20 -20 -20 -21 -21 -21 -21 -21 -21 -21 -21 -21 -21 -21 -21 -21 -21 -21 -21 -22 -22 -22 -22 -22 -22 -22 -22 -22 -21
-15 -15 -15 -15 -15 -15 -15 -15 -16 -16 -16 -16 -16 -16 -17 -17 -17 -17 -17 -17 -17 -18 -18 -18 -18 -18 -18 -19 -19 -19 -19 -19 -20 -20 -20 -21 -21 -21 -21 -21 -21 -21 -21 -21 -21 -21 -21 -21 -21 -21 -22 -22 -22 -22 -22 -22 -22 -22 -22 -22 -22 -22 -22
-15 -15 -15 -15 -15 -16 -16 -16 -16 -16 -16 -16 -16 -17 -17 -17 -17 -17 -17 -17 -18 -18 -18 -18 -18 -19 -19 -19 -19 -19 -19 -20 -20 -21 -21 -21 -21 -21 -21 -21 -21 -21 -21 -21 -21 -22 -22 -22 -22 -22 -22 -22 -22 -22 -22 -22 -22 -22 -22 -22 -22 -22 -22
-16 -15 -16 -16 -16 -16 -16 -16 -16 -16 -16 -17 -17 -17 -17 -17 -17 -17 -18 -18 -18 -18 -18 -18 -19 -19 -19 -19 -19 -19 -20 -20 -21 -21 -21 -21 -21 -21 -21 -21 -21 -21 -21 -22 -22 -22 -22 -22 -22 -22 -22 -22 -22 -22 -22 -22 -22 -22 -22 -22 -22 -22 -22
-16 -16 -16 -16 -16 -16 -16 -16 -16 -17 -17 -17 -17 -17 -17 -18 -18 -18 -18 -18 -18 -18 -19 -19 -19 -19 -19 -19 -19 -20 -20 -21 -21 -21 -21 -21 -21 -21 -21 -22 -22 -22 -22 -22 -22 -22 -22 -22 -22 -22 -22 -22 -22 -22 -23 -23 -23 -23 -22 -22 -22 -22 -22
Height
5825 5826 5827 5829 5830 5831 5831 5830 5830 5830 5830 5830 5830 5830 5830 5830 5830 5829 5829 5829 5829 5828 5828 5828 5827 5827 5826 5825 5824 5823 5822 5821 5819 5818 5816 5814 5813 5811 5810 5808 5807 5806 5804 5803 5803 5802 5801 5800 5798 5795 5793 5793 5791 5789 5788 5786 5785 5783 5782 5781 5779 5778 5778
5823 5824 5825 5827 5828 5828 5828 5828 5828 5828 5828 5828 5828 5828 5829 5828 5828 5827 5827 5827 5827 5826 5826 5826 5825 5825 5824 5823 5822 5820 5819 5818 5816 5815 5814 5812 5811 5809 5807 5805 5804 5802 5801 5800 5799 5797 5797 5797 5796 5794 5792 5790 5788 5786 5784 5784 5782 5780 5779 5777 5776 5775 5774
5820 5822 5823 5824 5825 5825 5826 5826 5827 5826 5826 5827 5827 5827 5827 5826 5826 5826 5825 5825 5825 5824 5824 5823 5823 5822 5821 5820 5818 5817 5816 5814 5813 5812 5810 5809 5807 5806 5805 5803 5801 5800 5798 5796 5795 5793 5792 5791 5791 5791 5789 5788 5786 5783 5781 5780 5779 5777 5776 5774 5773 5771 5770
5819 5821 5822 5822 5823 5824 5825 5825 5825 5825 5825 5825 5825 5825 5825 5824 5824 5824 5823 5823 5823 5822 5822 5821 5820 5819 5818 5817 5815 5814 5813 5811 5809 5808 5807 5805 5804 5802 5801 5800 5798 5797 5795 5794 5792 5790 5788 5787 5786 5785 5784 5783 5782 5781 5778 5776 5775 5773 5772 5770 5769 5768 5766
5818 5820 5821 5821 5822 5823 5823 5823 5824 5824 5823 5823 5823 5823 5823 5822 5822 5822 5822 5821 5821 5820 5819 5818 5817 5816 5815 5813 5812 5811 5810 5808 5806 5805 5803 5801 5800 5799 5797 5796 5794 5793 5791 5789 5788 5786 5785 5784 5782 5781 5780 5779 5778 5776 5774 5772 5771 5768 5767 5765 5764 5763 5762
5818 5819 5819 5820 5821 5821 5822 5822 5822 5822 5822 5821 5821 5821 5821 5820 5820 5820 5819 5819 5818 5817 5816 5815 5814 5813 5812 5811 5809 5808 5807 5805 5803 5802 5800 5798 5797 5795 5793 5792 5790 5788 5786 5785 5783 5781 5780 5779 5777 5776 5776 5775 5774 5772 5771 5769 5767 5764 5762 5760 5758 5757 5756
5816 5817 5817 5818 5819 5820 5820 5820 5820 5820 5820 5819 5819 5819 5819 5818 5818 5817 5817 5816 5815 5814 5813 5812 5811 5810 5809 5808 5807 5805 5804 5802 5800 5798 5797 5795 5793 5792 5790 5788 5786 5784 5782 5781 5779 5777 5775 5774 5772 5771 5771 5770 5768 5767 5766 5764 5762 5760 5757 5755 5753 5751 5750
5814 5815 5816 5817 5818 5818 5818 5818 5818 5818 5818 5817 5817 5817 5816 5816 5815 5815 5814 5813 5813 5812 5811 5810 5809 5808 5806 5805 5804 5803 5801 5799 5797 5795 5793 5792 5790 5789 5787 5785 5783 5781 5779 5777 5775 5773 5771 5769 5768 5766 5765 5765 5764 5763 5762 5760 5757 5754 5753 5751 5748 5745 5744
5812 5813 5814 5815 5815 5816 5816 5816 5816 5816 5815 5815 5815 5814 5813 5813 5813 5812 5811 5811 5810 5809 5808 5807 5806 5805 5804 5802 5801 5799 5797 5795 5794 5792 5790 5789 5787 5785 5783 5781 5779 5777 5775 5773 5771 5769 5767 5765 5763 5761 5760 5759 5758 5758 5757 5755 5752 5749 5748 5747 5744 5740 5738
5810 5811 5812 5813 5813 5813 5814 5814 5814 5813 5813 5812 5812 5811 5811 5810 5810 5809 5809 5808 5808 5807 5806 5805 5803 5802 5801 5799 5798 5796 5794 5792 5791 5789 5787 5785 5784 5782 5779 5777 5775 5773 5771 5769 5767 5765 5762 5760 5758 5756 5754 5752 5751 5751 5750 5750 5748 5744 5742 5741 5739 5736 5733
5809 5810 5810 5811 5811 5811 5811 5811 5811 5811 5810 5810 5809 5809 5808 5808 5808 5807 5807 5806 5805 5804 5803 5802 5801 5799 5798 5796 5794 5793 5791 5789 5787 5786 5784 5782 5780 5778 5776 5774 5772 5770 5767 5765 5763 5760 5758 5756 5753 5751 5748 5746 5745 5743 5743 5743 5741 5738 5737 5735 5733 5731 5729
5807 5808 5809 5809 5809 5809 5809 5809 5808 5808 5807 5807 5807 5807 5806 5806 5806 5805 5804 5803 5803 5801 5800 5799 5797 5796 5794 5793 5791 5789 5788 5786 5784 5782 5780 5779 5777 5775 5772 5770 5768 5766 5763 5761 5758 5756 5753 5751 5749 5746 5743 5741 5739 5737 5735 5735 5734 5731 5729 5728 5726 5724 5723
5805 5806 5806 5807 5807 5807 5806 5806 5806 5805 5805 5805 5805 5805 5805 5804 5804 5803 5802 5801 5799 5798 5797 5795 5794 5792 5791 5789 5788 5786 5784 5782 5780 5779 5777 5775 5773 5771 5768 5766 5764 5761 5759 5756 5753 5751 5749 5746 5744 5741 5739 5736 5733 5731 5729 5727 5727 5725 5721 5720 5719 5717 5715
5802 5803 5804 5804 5804 5804 5804 5804 5803 5803 5803 5803 5803 5803 5802 5802 5801 5800 5799 5797 5796 5795 5793 5792 5790 5789 5787 5786 5784 5782 5780 5778 5777 5775 5773 5771 5768 5766 5764 5762 5759 5757 5754 5751 5749 5746 5744 5741 5739 5736 5733 5730 5727 5725 5723 5721 5719 5718 5715 5712 5710 5709 5707
5801 5801 5802 5802 5802 5802 5802 5801 5801 5801 5801 5801 5801 5800 5800 5799 5798 5797 5795 5794 5793 5791 5790 5788 5787 5785 5783 5782 5780 5778 5777 5775 5773 5771 5768 5766 5764 5762 5759 5757 5755 5752 5749 5746 5743 5741 5738 5735 5732 5729 5726 5724 5721 5718 5716 5714 5712 5711 5709 5706 5702 5700 5699
5799 5799 5799 5800 5800 5799 5799 5799 5799 5799 5799 5799 5798 5798 5797 5796 5794 5793 5792 5790 5789 5788 5786 5785 5783 5781 5780 5778 5776 5775 5773 5771 5769 5767 5764 5762 5760 5757 5755 5752 5750 5747 5744 5741 5737 5735 5732 5729 5726 5723 5720 5717 5714 5711 5708 5706 5704 5702 5701 5699 5695 5693 5691
5796 5797 5797 5797 5797 5797 5797 5797 5797 5796 5796 5796 5795 5794 5793 5792 5791 5790 5788 5787 5786 5784 5783 5781 5779 5777 5776 5774 5773 5771 5769 5767 5764 5762 5760 5758 5755 5752 5750 5747 5745 5742 5739 5735 5732 5729 5726 5723 5720 5717 5714 5711 5708 5705 5702 5699 5696 5694 5692 5690 5687 5685 5682
5794 5794 5795 5795 5795 5795 5795 5794 5794 5794 5793 5793 5792 5791 5790 5789 5788 5786 5785 5784 5782 5781 5779 5778 5776 5774 5772 5771 5769 5767 5765 5762 5760 5758 5755 5753 5750 5747 5745 5742 5739 5736 5733 5730 5726 5723 5720 5717 5714 5711 5708 5705 5701 5698 5695 5692 5689 5686 5683 5681 5679 5676 5673
5792 5792 5792 5792 5793 5792 5792 5792 5791 5791 5790 5790 5789 5788 5787 5786 5784 5783 5782 5781 5779 5778 5776 5774 5772 5770 5768 5767 5764 5762 5760 5758 5755 5753 5750 5747 5745 5742 5739 5736 5733 5730 5727 5724 5720 5717 5713 5710 5707 5704 5701 5698 5695 5691 5688 5685 5682 5678 5675 5672 5669 5667 5665
5789 5790 5790 5790 5790 5790 5789 5789 5789 5788 5788 5787 5786 5785 5784 5783 5781 5780 5779 5777 5776 5774 5772 5770 5768 5766 5764 5762 5760 5757 5755 5753 5751 5748 5745 5742 5739 5736 5733 5730 5727 5724 5721 5718 5714 5711 5707 5703 5700 5697 5694 5690 5687 5683 5680 5676 5673 5670 5666 5663 5660 5657 5655
5787 5787 5787 5787 5787 5787 5787 5786 5786 5785 5785 5784 5783 5782 5781 5779 5778 5777 5775 5774 5772 5771 5769 5766 5764 5762 5760 5757 5755 5753 5751 5748 5746 5743 5740 5737 5734 5730 5727 5724 5721 5718 5715 5711 5708 5705 5701 5698 5694 5690 5686 5683 5679 5675 5672 5668 5665 5661 5657 5654 5650 5647 5644
5784 5784 5784 5784 5784 5784 5784 5784 5783 5783 5782 5781 5780 5779 5778 5776 5775 5773 5772 5770 5769 5767 5765 5763 5761 5758 5755 5753 5751 5748 5746 5744 5741 5738 5735 5732 5729 5725 5722 5719 5715 5712 5708 5705 5701 5698 5694 5690 5687 5683 5679 5675 5671 5667 5664 5660 5656 5652 5649 5645 5641 5638 5635
5782 5782 5782 5782 5782 5782 5782 5781 5781 5780 5779 5778 5777 5776 5774 5773 5771 5770 5768 5767 5765 5763 5761 5759 5757 5754 5751 5749 5747 5744 5742 5740 5737 5734 5731 5728 5725 5721 5717 5714 5710 5706 5703 5699 5695 5691 5687 5683 5679 5675 5671 5667 5663 5659 5655 5651 5647 5644 5640 5636 5633 5629 5626
5779 5779 5779 5780 5780 5780 5779 5779 5778 5777 5776 5774 5773 5772 5770 5769 5768 5766 5765 5763 5761 5759 5757 5755 5753 5751 5748 5745 5743 5741 5738 5736 5733 5730 5727 5723 5720 5717 5713 5710 5706 5702 5698 5694 5689 5685 5681 5677 5672 5668 5664 5660 5656 5651 5647 5644 5640 5636 5632 5628 5624 5620 5616
5777 5777 5777 5777 5777 5777 5776 5775 5775 5774 5772 5771 5769 5768 5767 5765 5764 5762 5761 5759 5757 5755 5754 5751 5749 5747 5745 5742 5740 5737 5735 5732 5729 5726 5722 5719 5716 5713 5709 5706 5702 5698 5693 5689 5684 5680 5676 5672 5667 5663 5659 5655 5650 5646 5641 5636 5632 5628 5624 5619 5615 5610 5606
5774 5774 5774 5774 5774 5773 5773 5772 5771 5770 5769 5767 5766 5764 5763 5761 5760 5758 5757 5755 5753 5752 5750 5748 5746 5743 5741 5739 5736 5734 5731 5728 5725 5722 5718 5715 5712 5709 5705 5701 5697 5693 5689 5685 5680 5676 5672 5667 5663 5659 5655 5650 5646 5641 5636 5631 5626 5621 5616 5612 5607 5602 5597
5771 5771 5771 5771 5771 5770 5769 5768 5767 5766 5765 5763 5762 5760 5758 5757 5756 5754 5753 5751 5750 5748 5746 5744 5742 5740 5738 5736 5733 5730 5727 5724 5721 5718 5715 5712 5708 5705 5701 5697 5693 5689 5685 5681 5677 5673 5668 5664 5660 5655 5651 5646 5641 5636 5631 5626 5621 5616 5610 5605 5600 5595 5589
5768 5768 5768 5768 5767 5767 5766 5765 5764 5762 5761 5759 5758 5756 5754 5753 5752 5750 5749 5748 5746 5744 5743 5741 5739 5737 5735 5732 5730 5727 5724 5721 5718 5715 5711 5708 5704 5701 5697 5693 5689 5685 5681 5677 5673 5669 5665 5661 5656 5651 5647 5642 5637 5632 5626 5621 5616 5611 5605 5600 5594 5589 5583
5765 5765 5765 5765 5764 5763 5762 5761 5760 5759 5757 5756 5754 5752 5751 5749 5748 5747 5746 5744 5743 5741 5739 5738 5736 5734 5731 5729 5726 5723 5721 5717 5714 5711 5708 5704 5700 5696 5692 5688 5685 5681 5678 5674 5670 5666 5662 5658 5653 5648 5643 5638 5633 5628 5623 5617 5611 5606 5600 5594 5589 5584 5580
5762 5762 5762 5762 5761 5760 5759 5758 5756 5755 5754 5752 5751 5749 5747 5746 5745 5744 5742 5741 5740 5738 5737 5735 5733 5730 5728 5725 5723 5720 5717 5714 5711 5707 5704 5700 5696 5692 5688 5685 5681 5678 5675 5671 5667 5663 5659 5655 5650 5645 5640 5636 5631 5626 5620 5615 5609 5602 5595 5590 5585 5582 5578
5759 5759 5759 5758 5757 5757 5756 5754 5753 5752 5751 5749 5747 5746 5744 5743 5742 5741 5740 5738 5737 5735 5733 5731 5729 5727 5724 5722 5719 5716 5714 5711 5707 5704 5700 5696 5692 5688 5685 5682 5678 5675 5672 5668 5664 5660 5656 5652 5648 5643 5639 5634 5629 5624 5619 5613 5607 5600 5594 5588 5584 5580 5576
5756 5756 5756 5755 5754 5753 5752 5751 5750 5749 5747 5746 5744 5743 5741 5740 5739 5738 5737 5736 5734 5732 5730 5728 5726 5724 5721 5718 5716 5713 5710 5707 5703 5699 5696 5692 5688 5685 5682 5679 5676 5672 5669 5665 5661 5657 5653 5650 5646 5641 5637 5632 5627 5622 5616 5611 5605 5599 5593 5587 5583 5579 5575
5753 5753 5752 5751 5750 5750 5749 5748 5747 5745 5744 5742 5741 5740 5738 5737 5736 5735 5734 5733 5731 5729 5727 5725 5723 5720 5718 5715 5713 5710 5707 5703 5699 5695 5692 5689 5686 5683 5680 5677 5673 5670 5666 5662 5659 5655 5651 5648 5644 5639 5635 5630 5625 5620 5614 5609 5603 5597 5591 5586 5581 5578 5574
5750 5749 5748 5747 5747 5746 5745 5744 5743 5742 5740 5739 5738 5737 5735 5735 5734 5733 5731 5730 5728 5726 5724 5722 5719 5717 5715 5712 5710 5706 5703 5699 5696 5692 5689 5686 5683 5680 5677 5674 5671 5667 5664 5660 5657 5653 5650 5646 5642 5637 5633 5628 5623 5618 5613 5608 5603 5597 5591 5585 5581 5577 5573
5746 5745 5744 5744 5743 5742 5741 5740 5739 5738 5737 5736 5734 5733 5733 5732 5731 5730 5728 5726 5725 5723 5721 5719 5716 5714 5712 5709 5706 5703 5699 5696 5693 5690 5687 5684 5681 5678 5675 5672 5669 5666 5662 5659 5655 5652 5648 5644 5640 5636 5631 5626 5622 5617 5613 5608 5603 5598 5592 5586 5581 5577 5573
5742 5741 5741 5740 5739 5739 5738 5737 5736 5734 5733 5732 5732 5731 5730 5729 5728 5726 5725 5723 5721 5720 5718 5716 5713 5711 5708 5705 5702 5699 5696 5693 5690 5688 5685 5682 5679 5676 5673 5670 5667 5664 5661 5657 5654 5650 5647 5643 5639 5635 5630 5626 5622 5617 5613 5608 5604 5599 5593 5587 5581 5577 5573
5738 5738 5737 5737 5736 5735 5734 5733 5732 5731 5730 5730 5729 5728 5727 5726 5725 5723 5722 5720 5718 5716 5714 5712 5710 5708 5705 5702 5699 5696 5693 5691 5688 5686 5683 5680 5677 5674 5671 5668 5665 5662 5659 5656 5652 5649 5645 5641 5638 5634 5630 5626 5622 5617 5613 5609 5604 5599 5594 5588 5582 5577 5572
Wind_Speed
21 20 18 16 17 17 16 12 11 11 11 10 10 10 10 10 11 11 12 13 14 16 17 18 19 20 21 23 24 26 27 27 28 28 28 29 30 31 32 32 32 32 31 30 29 28 26 24 26 28 28 28 27 27 27 27 27 27 27 27 27 27 26
16 16 15 15 15 15 12 10 11 12 11 11 11 11 11 12 12 13 14 15 16 17 19 20 21 22 24 25 26 28 29 30 30 30 30 31 31 32 32 33 33 33 33 33 32 32 31 28 27 27 29 29 29 30 29 28 28 29 29 28 29 29 28
13 12 12 13 13 12 11 12 13 13 12 11 11 11 12 12 13 14 15 16 18 19 20 22 23 24 26 27 28 29 30 31 32 32 32 32 32 32 32 33 33 33 34 35 35 35 35 34 32 30 30 30 29 30 31 31 30 30 30 30 30 30 29
12 10 12 12 12 12 13 14 14 13 12 11 11 12 12 13 14 15 17 18 19 21 22 23 25 26 27 28 30 30 31 32 32 33 33 33 33 33 34 34 33 34 34 34 35 36 36 36 35 34 33 32 31 30 31 32 32 32 32 32 32 31 31
11 12 12 11 12 14 15 15 14 13 12 12 12 13 13 14 16 17 19 20 21 22 23 24 26 27 28 29 30 31 31 31 32 32 32 33 34 34 35 35 35 35 35 35 35 36 36 36 35 34 33 33 32 31 32 33 33 34 34 34 34 33 33
12 12 12 12 13 14 14 14 13 13 13 13 13 14 15 16 17 18 20 21 22 23 24 25 27 27 28 29 30 30 30 31 31 32 33 33 34 35 35 36 36 36 36 36 37 37 36 36 36 35 34 33 33 32 32 33 33 34 35 36 36 35 35
11 11 11 12 13 14 14 13 14 14 14 14 14 15 16 17 18 19 20 21 22 23 25 26 27 27 28 29 29 30 30 31 32 32 33 34 34 35 35 36 36 36 36 37 37 37 37 37 37 37 36 35 34 34 33 33 34 34 35 36 37 37 37
9 10 11 13 14 14 14 14 15 15 15 15 15 15 16 17 18 19 20 21 22 23 25 26 27 27 28 29 30 30 31 32 32 33 33 34 34 35 35 35 36 36 36 36 37 37 38 38 38 38 38 37 36 35 35 35 35 36 36 36 38 39 39
9 11 13 14 14 14 15 15 15 15 15 15 15 16 17 18 19 20 20 21 22 24 25 26 27 28 29 29 30 31 32 32 33 33 33 34 34 35 35 35 35 36 36 36 37 38 38 39 39 39 39 39 38 36 35 35 35 37 37 37 38 40 41
11 13 14 15 15 15 15 16 15 15 15 15 16 16 17 18 19 20 20 22 23 24 25 26 28 29 29 30 31 31 32 32 33 33 34 34 34 34 35 35 36 36 37 37 38 38 39 40 40 40 40 40 40 39 37 36 36 37 38 37 38 39 41
13 15 16 16 16 16 16 16 15 15 15 15 16 17 18 18 19 20 21 22 23 25 26 27 28 29 30 31 31 32 32 33 33 34 34 34 34 34 35 36 36 37 38 38 39 40 40 41 41 42 42 42 42 42 41 39 38 39 39 39 39 39 41
15 15 16 16 16 16 15 15 15 15 15 16 16 17 18 19 20 21 22 23 24 25 26 27 28 30 30 31 32 32 33 33 34 35 35 35 35 35 36 36 37 38 38 39 40 40 41 42 43 43 44 45 45 45 45 44 42 43 42 42 42 42 42
16 15 15 15 15 15 15 15 16 16 17 17 17 18 19 20 21 22 23 24 25 26 26 28 29 30 31 32 33 34 34 35 35 36 36 36 36 36 37 37 38 38 39 40 41 42 43 44 45 45 46 47 47 47 47 47 46 45 46 45 45 44 44
16 16 16 16 16 16 16 17 17 18 18 18 19 20 21 22 22 23 24 24 25 26 27 29 30 32 33 34 35 35 36 36 37 37 38 38 38 38 38 39 39 39 40 42 43 44 45 46 47 48 48 48 49 49 49 49 48 46 46 47 47 46 46
17 17 17 17 17 18 18 18 18 19 20 20 21 22 22 23 23 24 25 26 27 28 29 30 32 33 35 35 36 37 38 38 38 39 39 39 39 39 39 39 40 41 42 44 46 47 48 49 50 50 51 51 51 51 51 50 50 48 47 47 48 48 48
18 18 18 18 18 18 19 19 20 21 21 22 23 23 23 24 25 26 26 27 28 29 30 32 34 35 36 37 38 39 39 39 39 39 39 39 40 40 40 41 42 43 45 46 48 49 50 51 52 52 52 52 52 52 52 52 51 50 49 48 49 49 49
18 19 19 19 19 20 21 21 22 22 23 23 23 24 24 25 27 28 29 29 30 31 33 34 36 38 39 39 39 40 40 40 39 39 40 40 41 41 41 42 44 45 47 48 49 51 51 52 52 52 52 52 52 51 52 52 52 52 52 51 51 51 51
20 20 20 20 21 21 22 22 22 22 22 23 24 25 26 27 29 30 30 31 32 33 35 37 39 40 40 40 40 40 40 40 40 40 41 42 42 42 43 45 46 48 49 50 51 51 52 52 52 52 51 51 51 51 51 52 53 53 54 54 54 54 54
20 20 20 21 21 22 22 22 22 23 23 25 26 27 28 29 30 31 32 33 34 36 37 39 41 41 41 41 41 41 41 41 41 42 43 43 44 45 46 48 49 51 52 52 52 52 53 53 52 52 52 52 52 52 52 53 53 54 54 55 55 55 55
19 20 21 22 23 23 24 24 24 25 26 27 27 29 30 31 32 33 34 35 36 37 39 40 42 43 43 43 43 42 42 42 43 44 45 45 45 47 49 51 52 53 53 53 53 53 53 53 53 53 53 53 54 54 54 54 54 55 55 55 55 54 54
18 20 22 23 24 25 25 25 26 26 27 28 29 30 31 32 34 35 36 37 37 38 39 40 42 43 44 44 43 42 42 42 43 45 45 46 47 49 51 52 53 53 54 54 53 53 53 53 53 54 54 54 55 55 55 55 54 54 54 54 53 53 52
19 21 23 24 24 25 25 25 25 26 27 29 30 31 33 34 35 35 35 36 37 38 40 41 42 43 44 43 42 41 41 42 43 45 46 47 48 50 51 52 53 53 53 53 53 53 53 53 54 54 55 55 55 55 54 54 53 52 52 51 51 51 51
20 22 23 23 23 23 24 24 25 27 28 30 31 32 33 34 34 34 35 37 38 39 40 40 41 41 41 41 40 40 41 42 44 45 46 47 48 50 51 51 51 51 52 52 52 52 52 53 53 54 54 54 54 54 53 52 52 52 51 51 51 51 51
21 22 22 22 22 23 24 25 26 28 29 31 32 33 34 34 34 35 37 38 38 39 38 38 38 39 39 38 39 40 41 42 43 44 46 48 49 49 50 50 50 50 51 51 51 51 51 52 52 52 52 52 52 52 52 52 52 52 53 53 53 53 53
22 22 22 22 24 25 26 27 28 30 32 33 34 35 35 35 35 36 37 37 37 36 35 36 36 36 37 37 39 40 41 42 43 44 46 47 48 48 48 48 49 49 49 49 49 50 50 50 50 49 49 49 49 50 52 53 53 53 54 54 54 54 54
23 23 23 24 25 26 27 29 30 31 33 35 36 37 37 36 35 36 36 34 33 33 34 35 35 35 36 38 39 40 40 41 43 45 46 47 47 47 47 48 48 48 48 48 48 48 48 47 47 46 47 47 48 50 51 52 52 53 53 53 52 53 52
24 24 25 25 26 27 28 29 30 32 33 34 36 37 36 34 32 32 31 30 31 32 33 34 34 35 37 37 38 39 40 42 44 44 45 45 45 46 46 46 46 46 46 46 46 46 45 45 45 45 45 47 48 49 50 50 50 50 50 50 49 49 49
25 25 26 26 27 28 28 29 30 31 32 33 33 33 31 29 28 28 29 30 31 32 33 33 34 36 36 37 37 39 41 42 43 43 43 43 44 45 45 45 45 45 45 44 44 43 43 42 43 44 45 47 48 48 48 49 49 48 48 48 46 44 42
25 26 26 27 27 27 28 29 30 31 32 33 33 31 28 27 28 29 30 31 31 32 33 34 35 35 35 36 38 40 41 41 41 41 42 43 44 44 44 44 44 43 43 42 42 41 40 41 42 44 45 46 46 47 47 47 48 49 48 45 41 37 36
26 26 26 26 27 27 28 29 30 31 31 32 32 30 28 28 28 29 29 30 30 32 33 34 34 34 35 37 38 39 39 39 40 41 42 42 43 42 42 42 42 41 41 40 40 39 39 40 41 43 44 44 44 45 45 46 47 49 47 41 35 34 35
26 26 25 25 26 27 28 29 30 30 30 29 29 28 27 27 27 27 28 29 30 32 33 33 33 34 36 37 38 38 38 38 39 41 41 41 41 41 41 40 40 39 39 38 38 37 38 39 41 41 42 42 43 43 44 45 47 48 44 36 32 33 36
25 25 24 24 25 26 28 29 29 28 28 27 26 26 25 25 26 26 28 29 31 31 32 32 33 34 36 36 37 37 37 38 40 40 40 40 40 39 39 38 38 38 37 37 36 36 37 39 39 40 40 41 42 42 44 45 47 48 44 34 29 31 34
23 23 23 23 25 26 27 27 27 26 26 25 24 24 24 24 25 27 28 30 30 31 31 32 33 34 35 35 35 36 37 38 39 39 38 38 37 37 36 36 36 36 35 35 35 35 37 38 38 39 40 40 41 42 43 45 46 48 46 37 30 30 31
21 21 22 24 25 26 26 26 25 25 24 23 23 22 23 24 26 28 29 29 30 30 31 32 33 33 33 33 34 36 37 38 38 37 36 35 35 34 34 34 34 34 34 34 34 34 36 37 37 39 39 40 41 41 42 43 44 46 46 39 33 29 28
20 21 23 24 25 25 25 24 24 24 23 22 22 23 24 25 27 28 29 29 30 30 31 31 32 32 32 33 34 36 37 36 35 34 33 33 32 32 33 33 33 33 32 32 32 33 35 36 37 38 39 39 40 40 41 42 42 43 44 42 36 30 25
21 22 23 23 23 23 23 23 23 23 22 22 23 24 25 26 27 28 28 29 29 29 30 30 30 30 31 33 35 35 35 33 32 32 31 31 31 31 32 32 32 31 31 31 31 32 34 35 36 37 38 38 39 39 40 40 40 41 42 43 39 32 24
22 22 23 23 23 23 22 22 22 22 22 23 23 24 25 26 27 27 28 28 28 28 29 29 29 30 32 33 34 33 32 31 30 29 29 29 29 30 31 31 31 30 30 30 31 32 33 34 35 36 37 38 38 38 39 39 39 40 40 42 41 35 26
Wind_Direction
242 239 234 226 223 235 250 251 242 247 255 260 266 273 279 283 285 288 289 290 290 291 291 292 293 295 296 299 300 300 301 303 304 305 305 307 307 307 307 307 307 306 305 305 304 303 301 301 302 303 303 302 301 301 301 303 304 305 305 305 305 304 304
241 234 229 232 240 252 257 249 249 254 259 266 273 277 281 284 287 288 289 289 289 289 290 291 294 296 298 299 300 301 303 305 306 307 307 308 307 307 307 307 306 306 305 305 304 303 301 299 298 297 298 299 299 299 299 300 300 301 302 302 301 301 301
228 224 235 247 253 255 252 248 252 256 260 267 272 276 279 282 284 286 286 287 287 288 290 292 295 297 299 301 302 303 305 307 308 309 309 309 308 308 307 306 305 304 304 304 303 302 301 301 300 298 297 296 296 297 297 297 297 297 297 297 297 298 298
221 241 255 254 251 249 249 250 253 256 260 264 267 271 275 279 282 284 284 285 286 288 291 294 297 299 301 302 304 305 307 308 309 309 310 310 310 310 308 307 306 305 304 303 302 301 301 301 301 300 299 297 296 295 295 295 295 294 294 293 293 294 294
247 259 256 247 244 245 247 250 253 255 258 260 265 270 275 279 281 283 285 286 288 291 294 297 299 301 302 303 304 306 308 308 309 310 311 312 312 311 310 309 309 308 307 305 304 303 302 301 300 300 298 298 297 295 295 295 294 293 292 291 290 290 289
258 254 249 245 245 247 249 253 254 255 258 262 268 273 276 280 282 284 286 288 291 294 296 298 299 300 302 303 305 306 307 308 309 311 312 312 312 311 310 311 311 311 309 308 307 306 305 304 303 302 301 300 299 297 296 295 294 293 292 291 289 288 287
250 247 248 248 248 251 253 255 256 257 261 265 270 274 277 280 282 285 287 290 293 295 296 297 298 300 301 303 305 306 307 309 310 311 312 312 311 311 311 311 311 311 310 310 309 308 307 306 305 305 304 303 302 300 298 296 294 292 292 291 290 289 288
248 246 247 248 251 253 255 256 258 261 265 269 273 275 278 280 283 285 288 291 293 295 296 297 298 299 301 303 304 306 308 310 312 312 312 311 311 311 312 312 311 311 310 309 308 308 307 306 306 305 304 303 301 300 298 296 294 292 290 290 290 289 288
250 249 249 251 253 254 257 259 262 265 269 272 273 275 278 280 283 286 289 292 293 294 295 296 298 299 301 303 305 308 310 312 312 312 312 311 311 312 312 311 311 310 310 308 308 307 306 306 305 305 304 304 302 300 298 296 293 291 290 289 288 288 287
248 250 251 253 256 258 261 263 265 268 270 272 274 277 280 282 285 288 290 291 292 292 294 295 297 299 301 304 308 310 311 312 312 312 311 311 311 311 311 310 311 310 309 308 308 307 306 306 306 305 305 304 304 302 300 298 294 291 290 289 287 286 285
249 251 254 257 260 262 263 264 266 269 271 274 277 279 281 283 286 288 289 289 290 291 293 295 297 299 303 306 309 311 311 311 312 311 311 311 311 310 310 310 311 310 309 309 308 308 308 307 307 306 305 305 304 303 302 300 296 293 292 290 287 285 284
253 256 260 262 264 265 266 267 269 272 273 275 277 279 282 283 285 287 288 289 290 291 293 296 298 301 304 307 309 310 311 312 312 312 311 310 310 309 310 310 310 310 309 309 309 308 308 307 306 305 304 303 302 302 301 299 297 294 292 290 288 286 284
260 262 263 263 263 265 268 270 273 274 274 275 278 281 283 285 285 287 288 290 291 293 295 298 300 303 306 308 309 310 310 311 312 312 311 309 308 308 309 309 310 310 309 309 309 308 307 306 305 304 302 301 300 299 299 297 296 294 292 290 288 286 284
266 267 267 265 266 269 271 273 274 275 276 278 280 282 284 285 286 289 291 293 295 296 298 300 302 305 306 308 308 308 309 311 312 311 310 308 308 308 309 310 310 310 309 309 308 307 307 306 305 304 303 301 300 299 298 297 295 293 292 290 289 286 285
269 271 271 271 271 272 273 274 275 276 277 278 280 282 284 286 289 291 294 296 298 299 300 302 304 305 306 307 307 308 308 310 311 310 309 308 308 309 310 310 310 309 309 308 308 307 307 307 306 305 304 302 301 300 299 297 296 294 292 290 289 287 286
266 268 270 270 270 271 271 273 274 275 276 278 281 284 286 289 291 294 296 297 299 301 302 303 304 305 305 306 307 307 308 309 310 310 309 309 309 309 309 309 309 309 309 308 308 308 307 307 306 305 303 302 301 300 299 298 296 295 293 291 289 287 286
261 263 265 267 268 270 271 272 273 274 277 280 283 286 288 291 293 295 297 298 300 302 303 304 304 304 305 306 306 307 307 308 309 309 309 308 309 309 309 310 309 309 309 308 308 308 307 306 305 304 302 301 300 299 298 297 296 294 293 291 289 288 286
262 263 265 267 269 272 273 275 276 278 280 283 285 288 290 292 294 295 297 299 301 302 303 304 303 303 305 307 307 307 307 307 308 308 308 308 309 310 310 310 310 309 309 308 308 308 307 306 305 303 302 301 299 298 297 296 295 294 292 291 289 288 286
268 268 269 270 271 274 276 278 281 282 285 286 288 290 291 293 294 296 298 300 301 302 303 303 303 304 307 308 307 307 306 306 307 308 309 309 310 310 310 310 310 309 309 309 309 308 307 306 305 303 302 301 300 299 298 297 295 294 292 291 289 288 286
271 270 271 272 273 276 278 281 284 286 287 289 290 291 292 294 296 297 299 300 301 302 303 303 304 306 308 308 307 306 306 306 306 307 309 310 310 311 311 311 310 310 309 309 308 307 306 305 304 303 302 301 301 301 300 299 298 296 295 293 292 290 288
270 271 272 273 275 277 279 282 285 287 289 290 291 293 294 295 296 296 298 300 301 302 302 304 305 307 309 309 308 307 306 306 306 308 309 310 311 312 312 311 311 310 309 308 307 306 305 305 304 304 304 304 303 303 302 301 300 299 298 297 296 294 292
271 270 271 272 274 276 279 283 286 288 289 290 292 293 294 295 296 297 299 301 302 302 303 305 307 308 310 310 309 308 307 307 307 309 310 311 312 312 312 312 311 311 310 309 308 308 308 307 307 307 307 306 306 305 305 304 303 302 301 300 298 297 295
269 268 269 271 274 277 280 284 286 287 289 291 292 294 295 296 297 299 301 302 302 302 304 306 307 309 309 309 309 308 307 307 308 309 310 311 312 313 312 312 312 312 312 312 312 312 313 313 312 312 311 310 310 309 309 308 307 306 305 303 301 300 298
266 266 268 271 274 278 281 285 287 290 291 292 293 295 296 297 298 299 300 300 301 302 304 306 307 307 308 308 308 307 307 307 308 310 311 312 313 313 313 313 313 313 314 315 316 316 317 317 317 316 316 315 314 314 313 312 311 310 309 307 305 303 301
264 267 271 275 278 282 286 289 291 292 293 293 294 296 296 297 297 297 298 299 300 302 303 304 305 306 307 307 307 306 307 308 310 312 313 313 313 313 313 313 314 315 316 318 319 320 320 319 319 319 318 318 317 317 316 316 315 314 312 311 310 308 306
264 269 274 278 282 286 289 291 292 292 293 294 295 296 296 296 297 298 298 299 300 301 302 303 304 305 306 306 306 307 309 311 312 313 313 313 313 313 314 315 316 318 320 321 321 321 321 320 320 320 320 320 320 320 320 319 318 318 316 315 313 311 308
265 271 277 281 285 288 290 291 292 292 293 294 295 295 295 295 297 298 299 299 300 300 301 303 304 305 305 305 306 309 311 312 313 313 313 313 314 314 316 317 319 321 322 323 323 322 322 322 322 322 322 323 323 323 323 323 322 322 321 320 318 315 313
268 275 280 284 287 289 291 293 293 294 294 295 296 296 294 293 295 297 298 298 299 300 302 304 304 304 304 306 309 311 312 312 313 313 313 314 315 317 318 320 322 323 324 324 323 323 323 324 324 325 326 326 327 328 328 328 328 327 327 327 325 324 323
270 276 281 285 288 291 294 295 295 296 296 295 294 294 291 288 291 294 296 298 300 302 303 303 302 303 306 309 310 311 312 312 313 313 315 316 318 320 322 323 324 324 324 324 325 325 326 326 327 329 330 330 331 332 334 334 334 335 336 334 332 333 334
271 278 282 287 291 293 295 295 295 296 296 295 293 292 290 289 290 294 297 300 301 302 301 301 302 306 308 310 311 312 312 313 314 315 317 319 321 323 324 325 325 325 325 326 327 327 328 329 331 332 333 334 335 337 338 339 341 343 342 338 336 339 341
275 280 285 289 292 292 293 293 294 296 296 295 294 293 293 294 295 298 300 301 300 299 299 302 306 309 310 311 312 313 313 314 316 318 320 322 324 325 325 326 326 326 327 328 329 330 331 333 334 335 335 337 339 340 341 343 347 349 346 338 335 339 344
277 282 285 288 289 289 290 291 293 294 295 295 294 294 295 297 299 300 300 299 298 299 302 306 309 310 312 313 313 313 315 317 319 321 322 324 326 326 326 326 327 328 329 330 331 333 335 336 336 337 339 341 342 343 345 347 350 352 349 341 335 338 345
276 281 285 286 287 287 288 290 292 294 295 295 294 295 297 298 299 299 298 297 299 303 306 309 311 312 312 313 313 315 318 320 322 323 325 326 326 326 327 328 329 330 332 333 334 336 337 338 339 341 343 345 345 347 349 351 353 355 352 345 337 338 345
278 283 285 286 287 287 288 291 293 294 295 295 296 297 298 298 297 297 297 299 303 307 309 310 311 312 312 313 316 318 320 322 324 325 326 326 326 327 328 330 331 333 334 335 337 338 339 340 342 345 347 348 349 351 352 353 356 357 355 350 341 338 343
282 285 286 287 288 288 290 292 293 294 295 296 297 298 298 297 297 297 300 303 306 308 309 310 311 312 314 316 319 321 322 324 325 326 326 326 327 329 330 332 334 336 336 337 339 340 341 343 346 348 350 352 353 353 354 355 357 359 359 357 349 341 338
284 285 286 287 288 290 291 292 293 294 295 296 297 298 297 297 298 300 303 305 307 309 309 311 312 314 317 319 321 322 324 325 326 326 326 327 329 331 333 336 338 338 338 339 341 341 343 346 349 351 353 354 354 355 356 357 358 360 2 2 358 348 339
283 286 287 288 290 291 292 293 293 294 295 295 296 297 297 298 300 301 304 306 308 310 311 313 315 317 319 320 322 323 325 326 326 326 327 330 333 335 338 340 339 339 341 342 342 343 346 349 350 352 354 356 356 357 358 358 360 1 3 5 5 360 353